Terminal Aerodrome Forecast
Issued by NWS

Home | Current Version | Previous Version | Graphics & Text | Print | Product List | Glossary On
Versions: 1 2 3 4 5 6 7 8 9 10 11 12 13 14 15 16 17 18 19 20 21
000
FTUS43 KICT 180213 AAA
TAFSLN
TAF AMD
KSLN 180213Z 1802/1824 11009KT P6SM OVC008
     FM180600 12005KT P6SM OVC005
     FM181200 15007KT 5SM BR VCTS OVC008CB
     FM181400 17009KT P6SM OVC025=

USA.gov is the U.S. government's official web portal to all federal, state and local government web resources and services.